Regional Weather Roundup
Issued by NWS

Home | Current Version | Previous Version | Graphics & Text | Print | Product List | Glossary Off
Versions: 1 2 3 4 5 6 7 8 9 10 11 12 13 14 15 16 17 18 19 20 21 22 23 24 25 26 27 28 29 30 31 32 33 34 35 36 37 38 39 40 41 42 43 44 45 46 47 48 49 50

000
ASUS45 KSLC 241010
RWRUT

UTAH REGIONAL WEATHER ROUNDUP
NATIONAL WEATHER SERVICE SALT LAKE CITY UT
400 AM MDT SUN JUL 24 2016

UTZ001>011-023>025-241100-

NORTHERN UTAH

CITY           SKY/WX    TMP DP  RH WIND       PRES   REMARKS
BRIGHAM CITY     N/A     64  35  33 CALM      30.08S
HILL AFB       CLEAR     66  29  24 E23       30.09S
LOGAN          CLEAR     55  43  63 CALM      30.12S
OGDEN          CLEAR     64  37  36 SW5       30.07S
PROVO AIRPORT  CLEAR     66  43  42 NW3       30.08S
SALT LAKE CITY CLEAR     67  41  38 S5        30.06S
VERNAL         CLEAR     73  23  15 N8        30.12S
WENDOVER       CLEAR     72  28  20 W3        30.09F
HEBER CITY     CLEAR     54  36  50 CALM      30.17S

$$

UTZ012>022-026-027-241100-

SOUTHERN/CENTRAL UTAH

CITY           SKY/WX    TMP DP  RH WIND       PRES   REMARKS
BLANDING       MOCLDY    72  42  34 E3        30.21F
BRYCE CANYON   CLEAR     50  34  54 W6        30.30S
CEDAR CITY     CLEAR     63  34  33 S3        30.13R
DELTA          CLEAR     68  23  18 E5        30.07R
MILFORD        CLEAR     62  25  24 CALM      30.09S
MOAB/CYNLANDS  CLEAR     80  39  23 E12       30.00S
PRICE          PTCLDY    70  28  21 NW3       30.13S
ST GEORGE      SUNNY     86  43  22 E7        29.90R
KANAB          CLEAR     66  36  32 N6        30.11S

$$

REGIONAL REPORTS     COLORADO/ARIZONA

CITY           SKY/WX    TMP DP  RH WIND       PRES   REMARKS
CRAIG, CO      CLOUDY    59  39  47 CALM      30.20F
GRAND JUNCTION CLOUDY    79  39  23 N9        30.10F
RIFLE          CLEAR     65  45  48 NW5       30.17R
MONTROSE       CLOUDY    65  43  44 E10       30.20R
CORTEZ         CLOUDY    62  44  51 NE8       30.19F
PAGE, AZ       CLEAR     84  37  18 CALM      29.99S
GRAND CANYON   CLEAR     58  51  78 NE6       30.25S
KINGMAN        CLEAR     82  49  31 VRB5      29.95F
FLAGSTAFF      CLEAR     56  49  77 SW6       30.28R

$$

REGIONAL REPORTS    NEVADA/IDAHO/WYOMING

CITY           SKY/WX    TMP DP  RH WIND       PRES   REMARKS
LAS VEGAS, NV  CLEAR     94  44  17 S7        29.76S HX  90
ELY            PTCLDY    50  19  29 S10       30.22R
ELKO           CLEAR     53  31  42 S5        30.16F
POCATELLO, ID  CLEAR     63  24  22 SW9       30.15R
BURLEY         CLEAR     50  38  63 SW7       30.09F
EVANSTON, WY   CLEAR     56  25  30 CALM      30.28S
ROCK SPRINGS   CLOUDY    54  21  27 NW3       30.25S
KEMMERER         N/A     46  32  57 N12       30.30S

$$



USA.gov is the U.S. government's official web portal to all federal, state and local government web resources and services.